Theta_e
334 334 333 333 334 334 334 334 335 334 334 335 335 334 334 334 336 345 347 350 352 352 350 349 348 348 348 349 349 350 350 349 352 354 353 351 350 347 345 347 348 352 351 346
333 333 331 332 332 333 332 334 334 334 334 333 334 335 335 335 335 338 342 346 349 351 351 350 349 348 349 349 349 351 352 353 353 351 351 351 351 350 346 347 347 352 350 351
330 330 330 330 331 331 330 333 334 334 332 333 335 335 335 334 337 336 338 341 344 349 351 351 351 350 348 349 350 352 354 355 355 352 352 351 352 350 350 350 349 352 350 351
329 329 328 328 328 329 330 333 333 332 333 335 333 335 335 336 335 336 338 340 343 346 350 351 351 350 350 349 351 352 355 356 356 355 351 351 351 351 351 352 349 350 350 350
328 329 329 328 328 329 330 332 333 332 333 334 333 335 332 335 336 336 340 342 341 344 349 351 351 350 350 349 351 352 356 356 355 354 353 351 352 351 352 350 350 351 350 351
329 330 330 329 330 330 330 331 332 333 334 337 334 334 332 335 334 337 342 343 344 345 348 350 349 349 350 350 350 352 356 357 356 355 354 352 352 353 350 350 351 351 349 351
331 331 330 330 330 330 330 331 334 336 337 337 334 334 333 332 333 335 341 344 347 347 348 350 351 350 350 350 351 352 356 358 357 355 354 351 353 352 349 349 351 348 348 349
333 335 332 331 331 333 334 332 333 337 335 335 334 333 333 331 333 336 338 344 347 348 348 350 350 348 349 350 352 352 356 358 357 355 354 352 353 351 351 350 351 346 347 347
334 333 332 331 331 332 332 334 333 332 333 334 334 334 333 332 334 334 337 339 347 349 349 350 349 349 350 351 352 352 355 358 357 355 354 352 353 353 350 350 350 346 348 350
333 334 332 332 331 331 332 332 334 333 336 337 334 337 334 335 335 334 338 340 342 348 350 349 350 349 351 352 351 352 354 358 356 355 354 352 352 353 351 350 350 346 348 349
334 335 335 334 335 335 333 334 333 332 332 334 335 333 334 335 335 335 340 343 343 346 348 350 350 349 350 351 351 352 353 356 355 355 354 351 351 352 352 350 350 348 348 351
336 337 336 333 333 334 334 336 335 336 337 336 335 335 333 334 333 339 344 344 346 345 347 348 351 350 350 351 350 350 353 354 355 354 354 351 351 351 351 351 350 350 349 351
335 336 336 332 332 332 333 335 334 332 333 335 336 335 336 335 340 341 343 346 346 347 348 349 349 351 351 351 351 351 353 355 355 354 354 351 351 350 350 349 350 349 350 352
330 331 332 332 331 330 332 334 337 336 337 336 336 335 334 335 338 339 345 345 345 346 347 349 350 351 351 352 352 354 352 354 355 354 353 352 350 350 349 349 350 349 350 352
328 329 328 328 328 328 329 328 327 329 330 333 335 336 336 337 338 340 344 345 345 347 347 348 349 350 351 353 353 354 353 355 355 354 354 353 351 350 350 349 350 350 352 352
328 331 330 330 329 329 329 328 327 327 327 328 328 330 330 331 333 337 343 346 345 347 348 350 350 349 350 352 354 354 356 355 356 357 355 354 353 352 351 351 351 351 353 353
329 330 332 333 331 330 329 329 328 327 326 327 327 328 328 329 334 339 342 344 343 344 345 348 350 350 348 349 352 355 356 356 357 358 356 356 355 353 352 352 352 353 353 352
328 330 331 333 332 333 329 327 326 327 326 326 331 336 340 339 338 337 341 341 341 341 342 343 346 348 349 347 348 352 354 357 359 359 358 357 357 356 354 354 355 355 354 354
326 328 330 332 332 330 327 328 330 329 331 337 337 336 336 336 336 337 342 339 338 338 338 339 341 345 350 352 349 353 354 356 358 359 359 359 359 358 357 356 355 354 354 354
326 327 329 329 330 331 329 331 329 329 330 333 332 334 334 334 338 342 336 336 337 336 334 336 339 344 349 354 349 354 355 359 360 359 360 360 359 359 359 358 357 355 355 354
331 330 329 329 330 328 330 329 327 331 332 330 330 329 330 332 333 333 331 333 334 335 334 334 338 342 347 355 349 352 356 359 360 359 359 360 358 360 359 358 357 355 355 353
331 331 330 330 331 331 329 329 331 330 327 327 327 327 328 328 328 329 329 331 334 335 334 333 336 340 345 352 355 350 356 357 359 359 360 360 359 358 359 358 355 354 353 353
328 327 330 330 330 329 326 326 326 326 326 325 325 325 326 326 326 327 327 329 331 333 334 332 335 337 342 348 355 352 356 358 359 360 360 360 360 360 358 354 351 345 344 349
325 326 328 328 327 327 326 325 324 324 324 325 325 325 326 326 326 325 325 327 330 332 333 332 334 337 341 345 351 355 355 358 359 360 360 360 360 358 358 354 350 346 345 344
325 325 326 327 325 325 325 324 324 324 323 324 323 324 326 327 326 326 326 326 329 331 332 332 334 338 340 344 347 349 354 357 359 359 360 359 356 355 356 352 349 347 346 345
324 325 325 327 325 325 325 326 323 325 324 324 325 325 325 325 326 327 326 326 328 331 331 333 334 336 340 345 348 347 352 354 355 356 356 357 353 352 354 350 348 348 351 351
Wind_Speed
15 11 12 13 7 12 9 12 11 9 6 10 12 15 14 12 11 10 12 14 16 17 19 22 22 20 18 16 17 17 14 14 15 13 14 15 18 23 19 13 12 11 12 10
13 11 13 14 6 10 13 14 13 8 7 14 17 14 18 8 7 10 13 14 14 16 18 19 24 22 21 19 19 19 17 16 16 16 17 14 13 20 23 21 19 15 12 11
12 15 4 9 9 14 14 15 15 10 13 20 9 14 3 9 5 6 9 12 13 16 17 20 21 24 22 20 20 20 19 18 17 15 12 10 9 11 16 19 19 16 13 12
12 10 12 11 13 12 15 8 6 10 14 13 18 13 14 7 5 11 8 11 13 15 17 19 20 24 24 24 21 21 20 20 18 15 13 15 15 15 16 20 21 19 15 13
8 6 8 12 13 12 13 5 7 13 16 16 18 9 9 10 7 9 7 6 4 12 18 19 19 26 27 25 24 21 20 17 15 15 13 11 13 15 17 20 19 16 16 13
15 6 7 11 9 5 12 11 14 18 15 13 14 2 9 4 6 6 2 5 1 6 14 17 22 23 21 24 23 23 22 20 18 16 14 11 12 14 19 20 19 17 17 15
17 18 16 10 12 13 14 14 11 13 11 12 8 3 8 6 8 5 4 4 5 7 12 16 17 18 23 23 24 24 23 22 19 16 14 12 11 15 17 18 20 20 19 17
9 8 7 6 12 15 11 13 12 12 11 13 8 4 7 4 7 3 5 5 5 9 11 15 16 18 21 21 23 23 23 22 20 17 14 13 13 15 15 19 18 20 19 20
9 8 11 5 6 10 15 9 13 17 12 13 8 7 6 8 9 6 8 4 6 7 11 14 15 19 21 23 24 24 23 22 21 19 16 15 14 12 15 17 14 18 12 15
10 10 13 4 2 13 15 14 10 10 12 12 10 6 2 7 11 6 14 12 6 4 7 12 14 17 21 24 25 24 23 22 21 20 18 17 16 15 14 17 16 17 17 16
13 12 14 9 11 15 8 13 16 15 11 14 12 1 6 9 5 6 16 12 12 12 4 8 11 17 19 23 25 25 24 22 22 21 19 18 19 18 15 15 18 14 13 14
5 9 14 19 18 18 11 17 18 13 13 11 12 13 8 8 2 13 13 10 13 11 6 5 10 16 19 20 24 25 26 24 23 22 21 20 19 19 19 20 19 17 16 14
10 7 12 16 16 20 12 14 16 19 19 20 15 12 12 5 14 14 10 11 11 11 12 4 6 10 16 21 21 24 24 25 23 23 22 21 22 21 21 20 19 19 18 16
5 14 17 15 18 19 13 15 13 15 13 17 15 17 18 6 8 13 11 12 11 10 10 8 6 8 12 17 21 21 24 25 24 24 24 23 23 23 22 21 20 20 18 17
10 15 16 18 18 18 18 20 19 20 20 22 21 21 19 16 13 7 6 10 11 10 11 9 10 8 13 15 18 22 24 26 27 25 24 22 23 22 21 21 22 20 19 18
11 14 13 16 18 19 22 21 22 22 21 23 22 22 20 20 16 9 9 9 11 11 10 11 8 9 11 15 18 20 22 25 26 27 25 24 23 22 22 20 21 20 21 19
13 13 14 18 16 17 14 19 20 17 18 15 17 14 12 12 7 8 8 7 9 10 12 12 11 9 14 14 17 21 22 24 25 25 26 24 23 23 23 22 21 21 21 19
16 14 12 13 14 19 20 6 5 11 11 13 8 10 9 10 11 8 5 5 9 11 11 12 12 13 15 16 16 21 23 24 24 25 26 25 25 24 23 23 23 22 21 21
13 13 13 14 15 16 18 4 8 7 13 7 7 8 11 11 12 16 8 5 8 12 12 14 17 18 17 16 16 16 22 25 25 26 26 27 26 25 24 23 22 22 21 20
10 9 10 14 16 17 10 9 6 6 10 7 7 9 9 10 10 11 11 12 10 13 16 18 20 18 17 11 16 15 20 21 24 25 26 26 27 25 25 23 21 20 20 19
8 8 12 12 14 15 10 7 4 10 5 9 10 12 14 11 11 19 16 14 14 14 18 19 19 18 15 19 11 16 18 20 22 23 25 25 27 25 24 24 23 21 20 16
11 11 11 11 14 17 13 8 7 11 12 12 15 16 16 15 17 15 17 16 15 13 17 20 18 18 17 18 14 18 18 20 21 23 23 25 26 26 26 26 29 28 24 17
8 6 8 8 11 13 17 14 14 15 15 17 18 18 17 19 19 18 17 18 15 16 16 19 20 19 18 15 20 16 17 18 21 24 24 26 27 27 25 25 24 20 17 17
7 3 9 12 11 15 21 20 15 15 14 15 15 18 18 19 20 19 18 17 14 17 17 18 20 18 18 16 16 21 18 20 21 24 25 27 29 26 25 24 23 19 20 18
12 11 13 17 15 18 17 14 15 14 14 20 17 17 20 21 19 19 17 17 15 19 16 16 19 17 18 20 15 22 22 21 24 27 29 30 28 29 25 24 21 19 20 21
7 6 6 11 14 12 17 22 18 20 15 17 19 13 16 18 21 19 17 20 18 19 15 17 17 17 17 17 17 14 11 17 25 25 27 27 27 28 25 24 14 20 19 19
Wind_Direction
225 250 242 249 290 352 315 283 288 299 2 273 304 289 295 278 237 209 233 214 211 204 198 198 192 190 191 184 185 185 199 187 183 180 191 202 199 214 215 218 211 187 185 200
246 235 250 278 313 283 277 279 275 292 330 307 290 305 270 268 258 224 221 231 221 208 198 191 188 194 194 187 183 187 197 192 197 199 203 196 205 202 209 213 210 200 197 191
247 267 16 294 282 253 251 262 281 320 310 285 280 285 320 220 169 258 245 237 231 206 203 185 187 191 192 192 187 188 195 195 203 219 187 193 205 193 195 207 205 190 185 188
255 269 273 240 251 262 271 269 324 292 297 305 310 292 267 109 230 225 241 223 210 211 201 192 188 192 192 200 189 191 194 198 202 209 203 200 207 193 203 194 192 180 184 186
242 229 236 242 254 262 258 258 274 280 283 284 286 272 343 153 200 30 14 13 263 196 189 204 192 186 196 193 187 192 191 194 210 205 230 213 212 201 194 188 187 179 174 184
273 259 242 273 278 260 276 283 273 259 254 260 255 291 291 90 53 4 91 95 245 190 182 194 187 191 193 190 186 186 186 196 199 201 213 230 201 195 187 190 175 180 177 182
219 230 222 223 255 232 230 251 268 264 224 255 119 319 353 6 82 343 1 91 146 180 178 185 189 193 185 193 185 188 185 193 198 202 209 213 200 193 192 182 185 181 176 179
277 253 169 169 239 283 267 241 260 311 297 316 338 285 111 35 79 25 40 103 138 178 176 185 191 193 182 194 185 193 182 190 195 198 205 200 196 197 190 184 200 184 178 184
323 240 135 207 237 271 262 221 271 280 291 266 258 245 256 147 121 37 50 35 151 193 184 190 186 192 180 193 190 193 185 193 194 194 195 194 193 193 193 192 192 190 177 164
288 288 275 206 259 248 256 292 294 246 248 263 293 307 350 155 62 21 67 16 17 194 215 191 191 191 185 191 191 193 190 192 192 190 191 192 190 190 193 194 188 197 172 184
287 288 276 283 237 262 202 230 228 252 283 303 288 63 88 205 93 30 63 25 24 346 207 218 201 187 191 193 194 189 189 189 190 191 189 189 187 189 185 190 193 194 190 195
318 309 292 292 300 296 278 291 291 284 264 237 269 281 333 148 344 82 59 38 13 2 325 275 203 194 193 200 200 193 184 193 195 193 185 188 190 188 189 194 193 194 196 197
1 267 286 280 254 223 229 259 259 255 267 271 283 279 134 219 99 66 33 24 7 2 1 309 272 199 198 194 204 200 192 192 197 194 191 190 190 191 191 195 191 194 200 193
316 271 268 278 297 316 295 291 281 288 271 279 266 268 284 124 63 346 14 3 354 360 356 349 289 207 210 205 200 206 199 193 195 194 194 191 194 192 194 192 197 194 196 197
255 270 278 281 283 286 286 283 280 274 274 279 292 294 297 302 347 112 68 1 346 355 350 351 328 291 190 206 210 207 208 193 195 194 196 194 192 193 195 194 193 199 194 200
257 266 275 277 278 272 272 271 267 264 267 268 271 275 289 298 305 341 21 9 341 349 346 342 342 312 272 206 210 212 212 203 196 193 195 193 189 191 193 194 192 200 200 201
278 279 278 275 291 289 279 264 265 269 262 284 273 287 312 302 332 351 352 353 342 348 344 336 334 325 294 236 211 215 211 211 198 194 196 193 187 191 193 193 197 201 207 205
261 256 271 272 282 269 269 27 332 301 301 285 313 347 11 350 341 326 87 7 333 339 342 337 327 329 307 273 226 206 213 209 201 198 195 192 187 189 193 193 199 202 206 210
254 260 265 267 260 267 276 314 336 327 305 33 344 337 340 341 319 267 83 10 332 328 331 333 328 320 314 293 280 199 212 201 203 201 197 196 189 186 187 194 200 205 211 210
263 259 258 257 271 272 305 90 21 336 270 43 350 336 339 334 281 91 348 335 328 327 324 323 327 317 315 296 263 206 206 203 201 201 199 196 190 189 187 187 196 203 205 211
229 230 254 253 258 268 33 15 336 249 337 345 337 328 319 309 317 318 319 322 319 319 317 319 317 318 323 314 258 238 205 213 202 202 198 194 191 191 188 185 185 194 193 198
279 282 269 264 268 263 45 313 304 346 324 315 314 306 301 299 295 293 304 308 311 309 311 312 310 316 317 306 282 247 215 212 199 202 196 188 188 190 192 186 181 181 180 190
266 296 324 311 318 323 327 314 313 315 307 300 296 298 299 295 292 294 293 293 299 296 301 302 298 308 312 308 323 253 228 213 202 199 191 185 181 189 185 188 190 204 188 176
297 307 268 299 284 311 313 305 316 330 313 302 289 287 291 289 289 285 282 283 289 294 293 295 294 299 310 306 303 308 240 215 207 192 188 180 183 189 186 193 190 189 190 206
291 322 297 281 291 293 284 298 295 290 298 286 292 303 300 300 290 283 283 277 277 281 283 292 289 297 304 304 303 291 281 217 204 193 182 182 188 190 189 193 196 208 213 202
14 354 311 294 304 314 307 291 291 293 290 291 288 272 281 287 285 281 272 273 274 274 281 290 285 289 295 313 323 329 285 237 214 209 189 184 192 190 187 192 188 207 195 200